Location: Deurze
(52.9838°N, 6.6090°E)
Time: 19:30:10
(UTC+00:00)

Cosmos 1943 Rocket - Pass Details

Date: 11 March 2026
Orbit: 809 x 844 km, 71.0° (Epoch: 20 April)

Event Time Altitude Azimuth Distance (km) Brightness Sun altitude
Rises 17:56:22 0° 202° (SSW) 3,331 5.6 -4.7°
Reaches altitude 10° 17:58:46 10° 200° (SSW) 2,408 4.8 -5.1°
Maximum altitude 18:04:16 72° 117° (ESE) 868 2.2 -5.9°
Drops below altitude 10° 18:09:51 10° 34° (NE) 2,447 4.3 -6.8°
Sets 18:12:18 0° 33° (NNE) 3,390 5.0 -7.1°
